Route Details
Puyallup
Time Location Temp F Dew point F Wind Dir Wind Speed kts
10:29 PM 47.6221 -122.5050 44 39 180 12
10:28 PM 47.6217 -122.5020 44 39 171 9
10:27 PM 47.6206 -122.4981 44 39 190 14
10:26 PM 47.6181 -122.4950 44 39 177 14
10:25 PM 47.6146 -122.4932 44 39 165 16
10:24 PM 47.6105 -122.4911 44 39 170 13
10:23 PM 47.6067 -122.4880 44 39 162 14
10:22 PM 47.6047 -122.4822 44 39 179 17
10:21 PM 47.6045 -122.4755 44 39 177 19
10:20 PM 47.6042 -122.4681 45 39 166 20
10:19 PM 47.6037 -122.4606 44 39 171 20
10:18 PM 47.6032 -122.4531 45 39 171 19
10:17 PM 47.6027 -122.4456 44 39 173 20
10:16 PM 47.6022 -122.4382 44 39 175 20
10:15 PM 47.6017 -122.4307 44 39 178 21
10:14 PM 47.6016 -122.4233 44 39 167 18
10:13 PM 47.6021 -122.4156 44 38 173 13
10:12 PM 47.6027 -122.4077 44 38 152 14
10:11 PM 47.6034 -122.3999 44 38 154 12
10:10 PM 47.6040 -122.3920 44 38 157 12
10:09 PM 47.6043 -122.3842 44 38 150 10
10:08 PM 47.6041 -122.3764 44 38 153 10
10:07 PM 47.6039 -122.3685 44 38 152 11
10:06 PM 47.6037 -122.3607 44 38 149 12
10:05 PM 47.6035 -122.3530 44 38 159 11
10:04 PM 47.6032 -122.3461 44 38 166 10
10:03 PM 47.6030 -122.3415 44 38 172 7
10:02 PM Seattle 44 38 139 4
10:01 PM Seattle 44 38 117 4
10:00 PM Seattle 44 38 140 3
9:59 PM Seattle 44 38 152 6
9:58 PM 47.6030 -122.3402 44 38 149 5
9:57 PM Seattle 44 38 156 5
9:56 PM Seattle 44 38 150 5
9:55 PM Seattle 44 38 182 5
9:54 PM 47.6030 -122.3402 44 38 117 7
9:53 PM 47.6030 -122.3402 44 38 155 6
9:52 PM Seattle 44 38 149 5
9:51 PM Seattle 44 38 168 5
9:50 PM Seattle 44 38 109 1
9:49 PM Seattle 44 38 199 4
9:48 PM Seattle 44 38 133 7
9:47 PM Seattle 44 38 156 5
9:46 PM Seattle 44 38 160 4
9:45 PM Seattle 44 38 169 7
9:44 PM 47.6031 -122.3416 44 38 142 10
9:43 PM 47.6034 -122.3436 44 38 155 10
9:42 PM 47.6039 -122.3463 44 38 166 12
9:41 PM 47.6047 -122.3503 44 38 177 10
9:40 PM 47.6058 -122.3552 44 38 160 12
9:39 PM 47.6071 -122.3618 45 38 160 14
9:38 PM 47.6076 -122.3688 45 38 161 16
9:37 PM 47.6081 -122.3759 45 38 168 17
9:36 PM 47.6086 -122.3830 45 39 169 18
9:35 PM 47.6090 -122.3900 45 39 173 13
9:34 PM 47.6094 -122.3972 45 39 179 15
9:33 PM 47.6098 -122.4042 45 39 175 18
9:32 PM 47.6102 -122.4113 45 39 175 18
9:31 PM 47.6105 -122.4185 45 39 170 19
9:30 PM 47.6107 -122.4256 45 40 183 21
9:29 PM 47.6107 -122.4329 45 40 182 20
9:28 PM 47.6101 -122.4402 44 39 198 20
9:27 PM 47.6095 -122.4475 44 39 196 19
9:26 PM 47.6089 -122.4548 44 39 206 19
9:25 PM 47.6082 -122.4620 44 39 196 19
9:24 PM 47.6076 -122.4690 44 39 195 19
9:23 PM 47.6069 -122.4755 44 39 204 15
9:22 PM 47.6063 -122.4815 44 39 208 14
9:21 PM 47.6063 -122.4864 44 39 184 14
9:20 PM 47.6084 -122.4900 44 39 214 15
9:19 PM 47.6117 -122.4916 43 39 207 17
9:18 PM 47.6150 -122.4931 43 39 198 16
9:17 PM 47.6182 -122.4949 43 39 199 10
9:16 PM 47.6205 -122.4983 43 39 192 8
9:15 PM 47.6215 -122.5030 43 39 187 7
9:14 PM Winslow 43 39 177 3
9:13 PM Winslow 43 39 219 2
9:12 PM Winslow 43 39 188 3
9:11 PM Winslow 43 39 149 1
9:10 PM Winslow 43 39 205 3
9:09 PM Winslow 43 39 174 7
9:08 PM Winslow 43 39 235 6
9:07 PM Winslow 43 39 207 4
9:06 PM Winslow 43 39 190 7
9:05 PM Winslow 43 39 204 8
9:04 PM Winslow 43 39 227 7
9:03 PM Winslow 43 39 213 7
9:02 PM Winslow 44 39 224 7
9:01 PM Winslow 44 39 220 5
9:00 PM Winslow 44 39 191 7
8:59 PM Winslow 44 39 223 7
8:58 PM 47.6223 -122.5079 44 39 212 4
8:57 PM Winslow 44 39 178 6
8:56 PM Winslow 44 39 201 5
8:55 PM Winslow 44 39 200 5
8:54 PM Winslow 44 39 196 5
8:53 PM Winslow 44 39 214 7
8:52 PM 47.6224 -122.5074 44 39 213 6
8:51 PM 47.6221 -122.5058 44 39 192 7
8:50 PM 47.6218 -122.5033 44 39 198 6
8:49 PM 47.6211 -122.4998 44 39 219 9
8:48 PM 47.6191 -122.4963 44 40 222 8
8:47 PM 47.6156 -122.4946 44 40 190 13
8:46 PM 47.6116 -122.4929 44 40 171 15
8:45 PM 47.6076 -122.4906 44 40 179 14
8:44 PM 47.6055 -122.4852 44 40 184 16
8:43 PM 47.6052 -122.4785 44 40 160 19
8:42 PM 47.6052 -122.4711 44 40 178 19
8:41 PM 47.6051 -122.4634 44 40 182 18
8:40 PM 47.6050 -122.4557 44 40 179 19
8:39 PM 47.6049 -122.4480 44 40 183 20
8:38 PM 47.6047 -122.4403 44 40 179 21
8:37 PM 47.6046 -122.4326 44 40 181 21
8:36 PM 47.6045 -122.4249 44 40 184 20
8:35 PM 47.6045 -122.4171 44 40 180 16
8:34 PM 47.6054 -122.4094 44 39 176 16
8:33 PM 47.6063 -122.4017 44 39 161 22
8:32 PM 47.6071 -122.3940 44 39 167 20
8:31 PM 47.6076 -122.3862 44 39 175 18
8:30 PM 47.6080 -122.3786 44 39 172 15
8:29 PM 47.6072 -122.3711 44 39 181 14
8:28 PM 47.6059 -122.3643 44 39 181 13
8:27 PM 47.6048 -122.3584 44 39 181 12
8:26 PM 47.6040 -122.3534 44 39 186 11
8:25 PM 47.6036 -122.3493 44 39 182 10
8:24 PM 47.6032 -122.3455 43 39 177 8
8:23 PM 47.6031 -122.3421 43 39 191 8
8:22 PM Seattle 43 39 195 6
8:21 PM 47.6030 -122.3402 44 39 185 8
8:20 PM Seattle 44 39 183 6
8:19 PM Seattle 44 39 190 8
8:18 PM Seattle 44 39 167 8
8:17 PM Seattle 44 39 187 9
8:16 PM Seattle 44 39 192 9
8:15 PM Seattle 44 39 196 7
8:14 PM Seattle 44 39 167 9
8:13 PM Seattle 44 39 172 5
8:12 PM 47.6030 -122.3401 44 39 200 5
8:11 PM Seattle 44 39 180 5
8:10 PM Seattle 44 39 171 7
8:09 PM Seattle 44 39 165 4
8:08 PM Seattle 44 39 170 5
8:07 PM Seattle 44 39 172 4
8:06 PM Seattle 44 39 184 4
8:05 PM Seattle 44 39 157 4
8:04 PM 47.6030 -122.3402 44 39 149 5
8:03 PM 47.6030 -122.3405 44 39 173 9
8:02 PM 47.6031 -122.3421 44 39 159 10
8:01 PM 47.6034 -122.3441 44 39 161 12
8:00 PM 47.6039 -122.3469 44 39 160 11
7:59 PM 47.6049 -122.3511 44 39 185 14
7:58 PM 47.6063 -122.3572 44 40 176 16
7:57 PM 47.6074 -122.3640 44 39 189 17
7:56 PM 47.6085 -122.3710 44 40 182 17
7:55 PM 47.6091 -122.3781 44 39 170 19
7:54 PM 47.6096 -122.3852 44 39 176 20
7:53 PM 47.6101 -122.3923 44 39 171 21
7:52 PM 47.6106 -122.3994 44 39 169 20
7:51 PM 47.6110 -122.4066 44 39 179 21
7:50 PM 47.6112 -122.4138 44 39 171 21
7:49 PM 47.6109 -122.4211 44 39 184 21
7:48 PM 47.6105 -122.4284 44 40 189 22
7:47 PM 47.6100 -122.4357 44 40 175 21
7:46 PM 47.6095 -122.4431 44 40 195 18
7:45 PM 47.6089 -122.4504 44 40 198 20
7:44 PM 47.6083 -122.4577 44 40 199 21
7:43 PM 47.6076 -122.4649 43 40 204 20
7:42 PM 47.6070 -122.4721 43 40 203 18
7:41 PM 47.6064 -122.4789 43 39 227 12
7:40 PM 47.6061 -122.4846 43 39 208 17
7:39 PM 47.6074 -122.4890 43 39 184 18
7:38 PM 47.6105 -122.4911 43 39 191 21
7:37 PM 47.6139 -122.4927 42 39 186 22
7:36 PM 47.6174 -122.4942 42 39 181 20
7:35 PM 47.6201 -122.4971 42 39 191 16
7:34 PM 47.6214 -122.5020 42 39 177 13
7:33 PM Winslow 42 39 187 9
7:32 PM 47.6224 -122.5079 42 39 190 3
7:31 PM Winslow 42 39 177 3
7:30 PM Winslow 42 39 219 9